TimeCST,TemperatureF,Dew PointF,Humidity,Sea Level PressureIn,VisibilityMPH,Wind Direction,Wind SpeedMPH,Gust SpeedMPH,PrecipitationIn,Events,Conditions,WindDirDegrees,DateUTC
12:15 AM,17.4,16.5,96,29.63,1.5,WNW,12.7,-,N/A,,Overcast,300,2012-12-16 06:15:00
12:35 AM,17.1,16.2,96,29.63,2.0,WNW,11.5,-,N/A,,Overcast,300,2012-12-16 06:35:00
12:55 AM,16.9,15.8,96,29.63,2.0,WNW,12.7,-,N/A,,Overcast,290,2012-12-16 06:55:00
1:15 AM,16.2,15.1,95,29.64,1.2,WNW,12.7,-,N/A,,Overcast,290,2012-12-16 07:15:00
1:35 AM,15.3,14.0,95,29.65,4.0,WNW,11.5,-,N/A,,Overcast,300,2012-12-16 07:35:00
2:15 AM,13.8,12.7,95,29.67,1.2,WNW,12.7,-,N/A,Snow,Light Snow,300,2012-12-16 08:15:00
2:35 AM,13.6,12.2,94,29.67,3.0,WNW,9.2,-,N/A,,Overcast,300,2012-12-16 08:35:00
2:55 AM,13.1,11.7,94,29.67,4.0,WNW,10.4,-,N/A,,Overcast,290,2012-12-16 08:55:00
3:15 AM,12.9,11.3,93,29.68,5.0,WNW,11.5,-,N/A,Snow,Light Snow,300,2012-12-16 09:15:00
3:35 AM,12.7,10.9,92,29.68,5.0,WNW,11.5,-,N/A,Snow,Light Snow,290,2012-12-16 09:35:00
3:55 AM,12.9,10.9,92,29.68,5.0,NW,10.4,-,N/A,Snow,Light Snow,310,2012-12-16 09:55:00
4:15 AM,12.9,10.9,92,29.68,5.0,NW,9.2,-,N/A,Snow,Light Snow,320,2012-12-16 10:15:00
4:35 AM,13.1,11.1,92,29.68,5.0,NW,9.2,-,N/A,Snow,Light Snow,320,2012-12-16 10:35:00
4:55 AM,13.1,11.1,92,29.69,5.0,NW,11.5,-,N/A,,Overcast,310,2012-12-16 10:55:00
5:15 AM,12.9,11.1,93,29.70,7.0,NW,10.4,-,N/A,Snow,Light Snow,310,2012-12-16 11:15:00
5:35 AM,13.1,11.3,93,29.70,7.0,NW,9.2,-,N/A,Snow,Light Snow,310,2012-12-16 11:35:00
6:15 AM,14.0,12.6,94,29.72,7.0,NW,9.2,-,N/A,,Overcast,320,2012-12-16 12:15:00
6:35 AM,14.4,12.9,94,29.72,7.0,NW,8.1,-,N/A,,Overcast,320,2012-12-16 12:35:00
6:55 AM,14.7,13.3,94,29.73,7.0,NW,10.4,-,N/A,,Overcast,310,2012-12-16 12:55:00
7:15 AM,15.1,13.6,94,29.72,10.0,WNW,9.2,-,N/A,,Overcast,300,2012-12-16 13:15:00
7:35 AM,15.6,14.0,93,29.72,7.0,NW,10.4,-,N/A,,Overcast,310,2012-12-16 13:35:00
8:15 AM,16.0,14.5,94,29.73,7.0,NW,10.4,-,N/A,,Overcast,310,2012-12-16 14:15:00
8:55 AM,16.3,14.7,93,29.73,7.0,NW,11.5,-,N/A,,Overcast,310,2012-12-16 14:55:00
9:15 AM,16.5,14.9,93,29.73,10.0,NNW,10.4,-,N/A,,Overcast,330,2012-12-16 15:15:00
9:35 AM,16.7,14.9,93,29.74,10.0,NW,10.4,-,N/A,,Overcast,310,2012-12-16 15:35:00
9:55 AM,16.7,15.1,93,29.74,10.0,NNW,10.4,-,N/A,,Overcast,330,2012-12-16 15:55:00
10:15 AM,17.1,15.4,93,29.75,10.0,NW,11.5,-,N/A,,Overcast,320,2012-12-16 16:15:00
10:35 AM,17.4,15.6,93,29.75,7.0,NW,9.2,-,N/A,,Overcast,310,2012-12-16 16:35:00
10:55 AM,17.8,16.2,93,29.75,10.0,NNW,9.2,-,N/A,,Overcast,330,2012-12-16 16:55:00
11:15 AM,18.3,16.5,93,29.75,10.0,NNW,8.1,-,N/A,,Overcast,330,2012-12-16 17:15:00
11:35 AM,18.5,16.9,93,29.74,10.0,NNW,9.2,-,N/A,,Overcast,330,2012-12-16 17:35:00
11:55 AM,18.5,17.2,95,29.74,10.0,NW,9.2,-,N/A,,Overcast,320,2012-12-16 17:55:00
12:15 PM,19.0,17.4,93,29.74,10.0,NW,9.2,-,N/A,,Overcast,320,2012-12-16 18:15:00
12:35 PM,19.2,17.6,93,29.73,10.0,NW,8.1,-,N/A,,Overcast,320,2012-12-16 18:35:00
12:55 PM,19.4,18.0,94,29.73,10.0,NNW,6.9,-,N/A,,Overcast,330,2012-12-16 18:55:00
1:15 PM,19.6,18.3,95,29.73,10.0,NW,6.9,-,N/A,,Overcast,320,2012-12-16 19:15:00
1:35 PM,19.9,18.5,94,29.73,10.0,NNW,6.9,-,N/A,,Overcast,340,2012-12-16 19:35:00
1:55 PM,19.9,18.5,94,29.73,10.0,NNW,6.9,-,N/A,,Overcast,340,2012-12-16 19:55:00
2:15 PM,19.8,18.5,95,29.73,10.0,NNW,6.9,-,N/A,,Overcast,340,2012-12-16 20:15:00
2:35 PM,19.8,18.3,94,29.73,10.0,NNW,5.8,-,N/A,,Overcast,330,2012-12-16 20:35:00
2:55 PM,19.8,18.3,94,29.73,10.0,North,6.9,-,N/A,,Overcast,350,2012-12-16 20:55:00
3:15 PM,19.9,18.5,94,29.73,10.0,NNW,5.8,-,N/A,,Overcast,330,2012-12-16 21:15:00
3:35 PM,19.9,18.7,95,29.74,10.0,NW,8.1,-,N/A,,Overcast,320,2012-12-16 21:35:00
3:55 PM,19.8,18.5,95,29.74,10.0,NW,9.2,-,N/A,,Overcast,320,2012-12-16 21:55:00
4:15 PM,19.8,18.5,95,29.74,10.0,NW,8.1,-,N/A,,Overcast,310,2012-12-16 22:15:00
4:35 PM,19.9,18.5,94,29.75,10.0,NNW,6.9,-,N/A,,Overcast,340,2012-12-16 22:35:00
4:55 PM,19.9,18.5,94,29.75,10.0,NNW,4.6,-,N/A,,Overcast,340,2012-12-16 22:55:00
5:15 PM,19.9,18.5,94,29.75,10.0,NW,6.9,-,N/A,,Overcast,320,2012-12-16 23:15:00
5:35 PM,19.8,18.3,94,29.76,10.0,NNW,5.8,-,N/A,,Overcast,340,2012-12-16 23:35:00
5:55 PM,19.9,18.5,94,29.76,10.0,NW,3.5,-,N/A,,Overcast,320,2012-12-16 23:55:00
6:15 PM,19.9,18.5,94,29.77,10.0,NNW,4.6,-,N/A,,Overcast,340,2012-12-17 00:15:00
6:35 PM,19.9,18.5,94,29.77,10.0,NNW,4.6,-,N/A,,Overcast,340,2012-12-17 00:35:00
6:55 PM,19.8,18.5,95,29.77,10.0,North,4.6,-,N/A,,Overcast,350,2012-12-17 00:55:00
7:15 PM,19.8,18.5,95,29.77,10.0,North,4.6,-,N/A,,Overcast,350,2012-12-17 01:15:00
7:35 PM,19.8,18.5,95,29.77,10.0,NNW,3.5,-,N/A,,Overcast,340,2012-12-17 01:35:00
7:55 PM,19.9,18.5,94,29.77,10.0,NW,4.6,-,N/A,,Overcast,310,2012-12-17 01:55:00
8:35 PM,19.6,18.5,96,29.77,10.0,NW,8.1,-,N/A,,Overcast,310,2012-12-17 02:35:00
8:55 PM,19.2,18.3,96,29.78,10.0,WNW,5.8,-,N/A,,Overcast,300,2012-12-17 02:55:00
9:15 PM,19.2,18.1,96,29.77,7.0,NW,6.9,-,N/A,,Overcast,310,2012-12-17 03:15:00
9:35 PM,19.0,18.0,96,29.77,7.0,NNW,3.5,-,N/A,,Overcast,340,2012-12-17 03:35:00
9:55 PM,19.2,18.1,96,29.76,7.0,NNW,3.5,-,N/A,,Overcast,330,2012-12-17 03:55:00
10:15 PM,19.2,18.1,96,29.76,5.0,WNW,5.8,-,N/A,,Overcast,300,2012-12-17 04:15:00
10:35 PM,19.0,18.0,96,29.76,3.0,WNW,6.9,-,N/A,,Overcast,290,2012-12-17 04:35:00
10:55 PM,18.7,17.6,96,29.76,4.0,Calm,Calm,-,N/A,,Overcast,0,2012-12-17 04:55:00
11:15 PM,18.5,17.6,96,29.76,3.0,NW,3.5,-,N/A,,Overcast,320,2012-12-17 05:15:00
11:35 PM,18.7,17.6,96,29.76,5.0,WNW,6.9,-,N/A,,Overcast,290,2012-12-17 05:35:00
11:55 PM,18.3,17.1,95,29.76,7.0,NW,4.6,-,N/A,,Overcast,310,2012-12-17 05:55:00